sat.trackr.live / text

‹ back to catalog

STARLINK-32934

NORAD 63200 · 2025-048T

PAYLOAD ACTIVE UNKNOWN

§ Identity

Operator
Country
US
Launch date
2025-03-13
Launch site
AFETR
Launch vehicle
Mass (kg)
RCS (m²)

Purposes: comms

External: N2YO · Heavens-Above · Gunter

§ Orbital elements

Epoch: 2026-05-24T22:05:13.263360Z

Period
94.27 min
Inclination
42.9998°
Eccentricity
0.0001075
Mean motion
15.27595330 rev/d
Perigee alt
482.3 km
Apogee alt
483.7 km
Semi-major
6,861.1 km
B*
8.8232e-4
RAAN
14.5487°
Arg perigee
272.1553°
Mean anomaly
87.9176°
Rev number
6,875

§ Raw data

STARLINK-329341 63200U 25048T   26144.92029240  .00024108  00000+0  88232-3 0  99952 63200  42.9998  14.5487 0001075 272.1553  87.9176 15.27595330 68755

JSON: /api/v1/satellites/63200 · /tle

For live sub-satellite position, see the globe view (requires WebGL).

§ Visibility from observer

Set your observer location to see the next 7 days of passes ≥ 10°. The values pass through the URL so the page stays shareable.

No JS? Fill the form by hand. The geolocation button needs JavaScript.